Fryeburg, ME

3:12 PM EDT on August 25, 2016 (GMT -0400)
Eastern Slopes Regional

Weather History for KIZG - September, 2013

Change the Weather History Date:

Sunday, September 8, 2013

  Actual Average Record
Temperature  
Mean Temperature 56 °F -  
Max Temperature 66 °F 74 °F 96 °F (2002)
Min Temperature 42 °F 46 °F 39 °F (2000)
Degree Days  
Heating Degree Days 10    
Growing Degree Days 6 (Base 50)    
Moisture  
Dew Point 46 °F    
Average Humidity 67    
Maximum Humidity 93    
Minimum Humidity 40    
Precipitation  
Precipitation 0.05 in - - ()
Sea Level Pressure  
Sea Level Pressure 29.86 in    
Wind  
Wind Speed 4 mph (WNW)    
Max Wind Speed 13 mph    
Max Gust Speed 20 mph    
Visibility 10 miles    
Events Rain    
Averages and records for this station are not official NWS values.
T = Trace of Precipitation, MM = Missing Value Source: NWS Daily Summary

Daily Weather History Graph

Daily Weather History Graph

Search for Another Location

Airport or City:

Trip Planner

Search our weather history database for the weather conditions in past years. The results will help you decide how hot, cold, wet, or windy it might be!

Date:

Astronomy

Sep. 08, 2013 Rise Set
Actual Time 6:15 AM EDT 7:06 PM EDT
Civil Twilight 5:45 AM EDT 7:35 PM EDT
Nautical Twilight 5:11 AM EDT 8:10 PM EDT
Astronomical Twilight 4:34 AM EDT 8:46 PM EDT
Moon 9:38 AM EDT (9/8) 8:30 PM EDT (9/8)
Length of Visible Light 13h 49m
Length of Day
12h 51m
Waxing Crescent, 11% of the Moon is Illuminated
Sep 8
Waxing Crescent
Sep 12
First Quarter
Sep 19
Full
Sep 26
Last Quarter
Oct 4
New

Hourly Weather History & Observations

Time (EDT) Temp. Windchill Dew Point Humidity Pressure Visibility Wind Dir Wind Speed Gust Speed Precip Events Conditions
12:54 AM 63.0 °F - 48.9 °F 60% 29.79 in 10.0 mi SSW 4.6 mph - N/A   Clear
1:54 AM 61.0 °F - 48.9 °F 64% 29.78 in 10.0 mi Calm Calm - N/A   Mostly Cloudy
2:54 AM 64.0 °F - 48.0 °F 56% 29.76 in 10.0 mi Variable 3.5 mph - 0.00 in   Mostly Cloudy
3:54 AM 57.0 °F - 53.1 °F 87% 29.76 in 10.0 mi South 4.6 mph - 0.01 in   Mostly Cloudy
4:54 AM 57.0 °F - 54.0 °F 89% 29.75 in 4.0 mi Calm Calm - 0.04 in Rain Rain
5:54 AM 55.9 °F - 54.0 °F 93% 29.75 in 10.0 mi Calm Calm - 0.00 in   Scattered Clouds
6:54 AM 57.9 °F - 54.0 °F 87% 29.74 in 10.0 mi Calm Calm - N/A   Mostly Cloudy
7:54 AM 57.9 °F - 55.0 °F 90% 29.74 in 10.0 mi WSW 6.9 mph - N/A   Overcast
8:54 AM 61.0 °F - 55.9 °F 83% 29.75 in 10.0 mi Variable 4.6 mph - 0.00 in   Overcast
9:54 AM 61.0 °F - 55.0 °F 81% 29.77 in 10.0 mi North 10.4 mph 18.4 mph N/A   Overcast
10:04 AM 60.8 °F - 53.6 °F 77% 29.78 in 10.0 mi Variable 4.6 mph - N/A   Overcast
10:32 AM 62.6 °F - 53.6 °F 72% 29.77 in 10.0 mi Variable 3.5 mph - N/A   Mostly Cloudy
10:54 AM 62.1 °F - 51.1 °F 67% 29.79 in 10.0 mi NNW 5.8 mph - N/A   Mostly Cloudy
11:54 AM 66.0 °F - 46.0 °F 48% 29.79 in 10.0 mi NW 8.1 mph - N/A   Mostly Cloudy
12:54 PM 63.0 °F - 43.0 °F 48% 29.82 in 10.0 mi NW 9.2 mph 19.6 mph N/A   Mostly Cloudy
1:54 PM 62.1 °F - 41.0 °F 46% 29.86 in 10.0 mi NW 12.7 mph 17.3 mph N/A   Overcast
2:54 PM 63.0 °F - 43.0 °F 48% 29.86 in 10.0 mi NW 11.5 mph 19.6 mph N/A   Clear
3:54 PM 63.0 °F - 39.9 °F 43% 29.89 in 10.0 mi NW 10.4 mph - N/A   Clear
4:54 PM 63.0 °F - 37.9 °F 40% 29.91 in 10.0 mi Variable 4.6 mph - N/A   Mostly Cloudy
5:54 PM 61.0 °F - 37.0 °F 41% 29.94 in 10.0 mi Calm Calm - N/A   Mostly Cloudy
6:54 PM 53.1 °F - 41.0 °F 64% 29.96 in 10.0 mi Calm Calm - N/A   Scattered Clouds
7:54 PM 48.0 °F - 41.0 °F 77% 30.01 in 10.0 mi Calm Calm - N/A   Partly Cloudy
8:54 PM 46.0 °F - 41.0 °F 83% 30.04 in 10.0 mi Calm Calm - N/A   Clear
9:54 PM 51.1 °F - 35.1 °F 54% 30.06 in 10.0 mi NW 6.9 mph - N/A   Clear
10:54 PM 45.0 °F 41.8 °F 37.0 °F 74% 30.08 in 10.0 mi SSW 5.8 mph - N/A   Clear
11:54 PM 42.1 °F - 37.0 °F 82% 30.09 in 10.0 mi Calm Calm - N/A   Clear